TimeEST,TemperatureF,Dew PointF,Humidity,Sea Level PressureIn,VisibilityMPH,Wind Direction,Wind SpeedMPH,Gust SpeedMPH,PrecipitationIn,Events,Conditions,WindDirDegrees,DateUTC
12:34 AM,44.6,39.2,81,30.38,10.0,WNW,5.8,-,N/A,,Mostly Cloudy,300,2013-01-09 05:34:00
12:54 AM,45.0,37.9,76,30.38,10.0,WNW,4.6,-,N/A,,Overcast,300,2013-01-09 05:54:00
1:34 AM,46.4,37.4,71,30.36,10.0,Calm,Calm,-,N/A,,Overcast,0,2013-01-09 06:34:00
1:54 AM,45.0,37.0,74,30.37,10.0,Calm,Calm,-,N/A,,Mostly Cloudy,0,2013-01-09 06:54:00
2:23 AM,46.4,37.4,71,30.38,10.0,Calm,Calm,-,N/A,,Overcast,0,2013-01-09 07:23:00
2:54 AM,45.0,39.0,80,30.38,10.0,Calm,Calm,-,N/A,,Overcast,0,2013-01-09 07:54:00
3:54 AM,42.1,36.0,79,30.38,10.0,Calm,Calm,-,N/A,,Partly Cloudy,0,2013-01-09 08:54:00
4:54 AM,42.1,37.0,82,30.37,9.0,Calm,Calm,-,N/A,,Partly Cloudy,0,2013-01-09 09:54:00
5:54 AM,39.0,36.0,89,30.38,8.0,Calm,Calm,-,N/A,,Partly Cloudy,0,2013-01-09 10:54:00
6:54 AM,39.0,36.0,89,30.39,7.0,Calm,Calm,-,N/A,,Partly Cloudy,0,2013-01-09 11:54:00
7:54 AM,37.9,35.1,89,30.41,5.0,Calm,Calm,-,N/A,,Partly Cloudy,0,2013-01-09 12:54:00
8:25 AM,42.8,39.2,87,30.41,5.0,SSW,3.5,-,N/A,,Mostly Cloudy,210,2013-01-09 13:25:00
8:54 AM,45.0,39.0,80,30.43,6.0,Calm,Calm,-,N/A,,Haze,0,2013-01-09 13:54:00
9:54 AM,50.0,41.0,71,30.44,8.0,West,3.5,-,N/A,,Mostly Cloudy,260,2013-01-09 14:54:00
10:15 AM,51.8,41.0,67,30.44,9.0,WSW,4.6,-,N/A,,Mostly Cloudy,250,2013-01-09 15:15:00
10:54 AM,55.9,42.1,60,30.43,10.0,West,3.5,-,N/A,,Mostly Cloudy,260,2013-01-09 15:54:00
11:54 AM,60.1,46.0,60,30.39,10.0,SSW,6.9,-,N/A,,Clear,200,2013-01-09 16:54:00
12:54 PM,63.0,48.0,58,30.36,10.0,SW,8.1,-,N/A,,Clear,220,2013-01-09 17:54:00
1:54 PM,62.1,48.9,62,30.36,10.0,SW,10.4,-,N/A,,Partly Cloudy,220,2013-01-09 18:54:00
2:54 PM,62.1,48.9,62,30.36,10.0,SW,8.1,-,N/A,,Overcast,220,2013-01-09 19:54:00
3:54 PM,61.0,48.9,64,30.37,10.0,WSW,5.8,-,N/A,,Mostly Cloudy,240,2013-01-09 20:54:00
4:54 PM,60.1,48.9,67,30.37,10.0,Calm,Calm,-,N/A,,Scattered Clouds,0,2013-01-09 21:54:00
5:54 PM,57.0,48.9,74,30.36,10.0,SSW,6.9,-,N/A,,Partly Cloudy,200,2013-01-09 22:54:00
6:54 PM,57.0,48.0,72,30.38,10.0,West,3.5,-,N/A,,Partly Cloudy,260,2013-01-09 23:54:00
7:54 PM,54.0,48.0,80,30.39,10.0,West,3.5,-,N/A,,Partly Cloudy,260,2013-01-10 00:54:00
8:54 PM,54.0,48.0,80,30.40,10.0,NW,4.6,-,N/A,,Clear,310,2013-01-10 01:54:00
9:54 PM,52.0,48.0,86,30.41,10.0,Calm,Calm,-,N/A,,Clear,0,2013-01-10 02:54:00
10:54 PM,52.0,48.9,89,30.41,10.0,Calm,Calm,-,N/A,,Clear,0,2013-01-10 03:54:00
11:54 PM,48.9,46.9,93,30.42,8.0,Calm,Calm,-,N/A,,Clear,0,2013-01-10 04:54:00